Weather History for Three Rivers, MI

Change the Weather History Date:

Monday, May 27, 2013

  Actual Average Record
Temperature  
Mean Temperature 56 °F -  
Max Temperature 61 °F 73 °F 92 °F (2012)
Min Temperature 50 °F 49 °F 28 °F (1961)
Degree Days  
Heating Degree Days 10    
Growing Degree Days 6 (Base 50)    
Moisture  
Dew Point 47 °F    
Average Humidity 78    
Maximum Humidity 98    
Minimum Humidity 38    
Precipitation  
Precipitation 0.00 in - - ()
Sea Level Pressure  
Sea Level Pressure 30.10 in    
Wind  
Wind Speed 8 mph (ESE)    
Max Wind Speed 14 mph    
Max Gust Speed 21 mph    
Visibility 8 miles    
Events Rain    
Averages and records for this station are not official NWS values.
T = Trace of Precipitation, MM = Missing Value Source: NWS Daily Summary

Daily Weather History Graph

Daily Weather History Graph

Search for Another Location

Airport:

Trip Planner

Search our weather history database for the weather conditions in past years. The results will help you decide how hot, cold, wet, or windy it might be!

Date:

Astronomy

May. 27, 2013 Rise Set
Actual Time 6:12 AM EDT 9:07 PM EDT
Civil Twilight 5:38 AM EDT 9:40 PM EDT
Nautical Twilight 4:56 AM EDT 10:22 PM EDT
Astronomical Twilight 4:07 AM EDT 11:12 PM EDT
Moon 11:45 PM EDT (5/27) 8:49 AM EDT (5/27)
Length of Visible Light 16h 01m
Length of Day
14h 55m
Waning Gibbous, 91% of the Moon is Illuminated
May 27
Waning Gibbous
May 31
Last Quarter
Jun 8
New
Jun 16
First Quarter
Jun 23
Full

Hourly Weather History & Observations

Time (EDT) Temp. Dew Point Humidity Pressure Visibility Wind Dir Wind Speed Gust Speed Precip Events Conditions
12:14 AM 61.2 °F 35.1 °F 38% 30.21 in 10.0 mi ESE 6.9 mph - N/A   Clear
12:35 AM 61.0 °F 35.6 °F 39% 30.22 in 10.0 mi ESE 6.9 mph - N/A   Clear
12:54 AM 61.0 °F 35.6 °F 39% 30.21 in 10.0 mi ESE 8.1 mph - N/A   Mostly Cloudy
1:14 AM 61.0 °F 35.1 °F 38% 30.20 in 10.0 mi ESE 6.9 mph - N/A   Mostly Cloudy
1:34 AM 60.3 °F 35.6 °F 40% 30.20 in 10.0 mi ESE 5.8 mph - N/A   Mostly Cloudy
1:54 AM 60.3 °F 35.6 °F 40% 30.20 in 10.0 mi ESE 6.9 mph - N/A   Overcast
2:15 AM 60.3 °F 35.6 °F 40% 30.19 in 10.0 mi SE 5.8 mph - N/A   Overcast
2:34 AM 60.3 °F 35.4 °F 39% 30.19 in 10.0 mi SE 8.1 mph - N/A   Overcast
2:54 AM 60.1 °F 35.1 °F 39% 30.18 in 10.0 mi SE 8.1 mph - N/A   Overcast
3:15 AM 59.9 °F 35.4 °F 40% 30.18 in 10.0 mi ESE 4.6 mph - N/A   Overcast
3:34 AM 59.9 °F 35.1 °F 39% 30.18 in 10.0 mi ESE 6.9 mph - N/A   Overcast
3:54 AM 59.5 °F 34.9 °F 40% 30.18 in 10.0 mi ESE 8.1 mph - N/A   Overcast
4:15 AM 59.4 °F 35.4 °F 41% 30.17 in 10.0 mi ESE 5.8 mph - N/A   Overcast
4:34 AM 59.4 °F 34.9 °F 40% 30.17 in 10.0 mi SE 9.2 mph - N/A   Overcast
4:54 AM 59.4 °F 35.1 °F 40% 30.17 in 10.0 mi SSE 5.8 mph - N/A   Overcast
5:14 AM 59.2 °F 34.7 °F 40% 30.17 in 10.0 mi SE 8.1 mph - N/A   Overcast
5:34 AM 59.4 °F 34.9 °F 40% 30.17 in 10.0 mi SE 8.1 mph - N/A   Overcast
5:55 AM 59.2 °F 35.6 °F 41% 30.17 in 10.0 mi SE 8.1 mph - N/A   Overcast
6:14 AM 58.5 °F 35.4 °F 42% 30.16 in 10.0 mi SSE 9.2 mph - N/A   Overcast
6:34 AM 57.6 °F 37.8 °F 48% 30.17 in 10.0 mi SSE 10.4 mph - N/A   Overcast
6:55 AM 54.0 °F 44.2 °F 70% 30.18 in 10.0 mi South 5.8 mph - N/A   Light Drizzle
7:14 AM 53.6 °F 46.9 °F 78% 30.20 in 10.0 mi South 5.8 mph - N/A   Overcast
7:35 AM 53.8 °F 47.7 °F 80% 30.20 in 10.0 mi South 9.2 mph - N/A   Overcast
7:54 AM 53.1 °F 47.3 °F 81% 30.18 in 10.0 mi SSE 9.2 mph 17.3 mph N/A   Light Drizzle
8:14 AM 52.5 °F 48.0 °F 85% 30.18 in 10.0 mi SSE 9.2 mph - N/A Rain Light Rain
8:35 AM 51.4 °F 47.8 °F 87% 30.18 in 7.0 mi SE 9.2 mph - N/A Rain Light Rain
8:54 AM 51.1 °F 48.6 °F 91% 30.18 in 7.0 mi SE 9.2 mph - N/A Rain Light Rain
9:14 AM 51.1 °F 49.1 °F 93% 30.17 in 7.0 mi ESE 9.2 mph - N/A Rain Light Rain
9:35 AM 50.9 °F 49.3 °F 94% 30.17 in 7.0 mi ESE 5.8 mph - N/A Rain Light Rain
9:54 AM 51.3 °F 50.0 °F 95% 30.17 in 7.0 mi ESE 8.1 mph - N/A Rain Light Rain
10:14 AM 51.4 °F 50.2 °F 95% 30.16 in 7.0 mi ESE 6.9 mph - N/A Rain Light Rain
10:35 AM 51.8 °F 50.5 °F 95% 30.15 in 7.0 mi SE 8.1 mph - N/A Rain Light Rain
10:54 AM 52.0 °F 50.9 °F 96% 30.15 in 5.0 mi ESE 6.9 mph - N/A Rain Rain
11:14 AM 52.0 °F 50.5 °F 95% 30.14 in 7.0 mi ESE 10.4 mph - N/A Rain Light Rain
11:35 AM 52.2 °F 50.5 °F 94% 30.14 in 5.0 mi SE 11.5 mph - N/A Rain Light Rain
11:54 AM 52.2 °F 50.5 °F 94% 30.13 in 4.0 mi ESE 13.8 mph 19.6 mph N/A Rain Light Rain
12:14 PM 52.0 °F 50.7 °F 95% 30.12 in 4.0 mi ESE 9.2 mph 16.1 mph N/A Rain Light Rain
12:34 PM 52.0 °F 50.9 °F 96% 30.12 in 5.0 mi East 11.5 mph 17.3 mph N/A   Overcast
12:54 PM 51.8 °F 50.2 °F 94% 30.12 in 10.0 mi ESE 9.2 mph 16.1 mph N/A   Overcast
1:15 PM 52.0 °F 50.5 °F 95% 30.11 in 10.0 mi ESE 8.1 mph - N/A   Overcast
1:34 PM 53.8 °F 51.8 °F 93% 30.10 in 10.0 mi ESE 8.1 mph - N/A   Overcast
1:54 PM 54.0 °F 50.9 °F 89% 30.10 in 10.0 mi ESE 10.4 mph - N/A   Overcast
2:15 PM 53.8 °F 50.7 °F 89% 30.09 in 10.0 mi ESE 13.8 mph 20.7 mph N/A   Overcast
2:34 PM 54.0 °F 50.9 °F 89% 30.07 in 10.0 mi ESE 11.5 mph 17.3 mph N/A   Overcast
2:54 PM 54.0 °F 50.9 °F 89% 30.07 in 10.0 mi ESE 11.5 mph 18.4 mph N/A   Overcast
3:15 PM 54.0 °F 50.9 °F 89% 30.07 in 10.0 mi ESE 10.4 mph 18.4 mph N/A   Overcast
3:34 PM 54.0 °F 51.1 °F 90% 30.07 in 10.0 mi ESE 12.7 mph 17.3 mph N/A   Overcast
3:54 PM 54.0 °F 51.1 °F 90% 30.06 in 10.0 mi ESE 9.2 mph - N/A   Overcast
4:15 PM 53.8 °F 51.3 °F 91% 30.05 in 10.0 mi East 6.9 mph - N/A   Overcast
4:34 PM 54.0 °F 51.4 °F 91% 30.04 in 10.0 mi ESE 10.4 mph - N/A Rain Light Rain
4:54 PM 53.4 °F 51.8 °F 94% 30.03 in 3.0 mi East 8.1 mph - N/A Rain Light Rain
5:14 PM 53.1 °F 52.0 °F 96% 30.02 in 3.0 mi East 9.2 mph - N/A Rain Rain
5:34 PM 52.7 °F 51.8 °F 97% 30.02 in 2.0 mi East 8.1 mph - N/A Rain Heavy Rain
5:55 PM 52.5 °F 52.0 °F 98% 30.01 in 3.0 mi East 9.2 mph - N/A Rain Rain
6:14 PM 52.3 °F 51.8 °F 98% 30.01 in 4.0 mi East 6.9 mph - N/A Rain Light Rain
6:34 PM 52.3 °F 51.8 °F 98% 29.99 in 3.0 mi East 8.1 mph - N/A Rain Light Rain
6:55 PM 52.3 °F 51.8 °F 98% 29.98 in 3.0 mi East 9.2 mph - N/A Rain Light Rain
7:14 PM 52.5 °F 52.0 °F 98% 29.99 in 5.0 mi East 8.1 mph - N/A   Overcast
7:35 PM 52.7 °F 52.0 °F 97% 29.98 in 7.0 mi East 8.1 mph - N/A   Overcast
7:54 PM 52.7 °F 52.0 °F 97% 29.97 in 7.0 mi East 10.4 mph - N/A   Overcast
8:14 PM 52.7 °F 52.2 °F 98% 29.97 in 7.0 mi East 8.1 mph - N/A   Overcast
8:35 PM 52.9 °F 52.2 °F 97% 29.97 in 7.0 mi East 8.1 mph - N/A   Overcast
8:54 PM 53.1 °F 52.3 °F 97% 29.95 in 7.0 mi East 9.2 mph - N/A   Overcast
9:14 PM 53.2 °F 52.7 °F 98% 29.96 in 7.0 mi ESE 8.1 mph - N/A   Overcast
9:34 PM 53.6 °F 52.7 °F 97% 29.96 in 7.0 mi ESE 4.6 mph - N/A   Overcast
9:54 PM 53.6 °F 52.9 °F 97% 29.95 in 7.0 mi East 6.9 mph - N/A   Overcast
10:15 PM 54.0 °F 53.1 °F 97% 29.95 in 7.0 mi East 4.6 mph - N/A Rain Rain
10:34 PM 53.8 °F 53.1 °F 97% 29.95 in 7.0 mi East 4.6 mph - N/A Rain Light Rain
10:54 PM 54.0 °F 53.4 °F 98% 29.95 in 7.0 mi East 5.8 mph - N/A   Overcast
11:15 PM 54.3 °F 53.6 °F 97% 29.95 in 7.0 mi East 6.9 mph - N/A   Overcast
11:34 PM 54.3 °F 53.6 °F 97% 29.95 in 7.0 mi East 4.6 mph - N/A   Overcast
11:54 PM 54.5 °F 53.6 °F 97% 29.95 in 7.0 mi East 5.8 mph - N/A   Overcast